GPS BIIR-13

Last updated on Sat Jun 27 2026 00:02:55 GMT+0000 (Coordinated Universal Time)

1 28474U 04045A 26177.53209161 -.00000105 00000+0 00000+0 0 9993 2 28474 55.1303 324.5198 0169914 316.6329 228.4813 2.00556458158610
UTC large
Height (km)
Speed (km/s)
/
Latitude / Longitude
Inclination (degrees)
Orbital Period (minutes)
Azimuth
Elevation
Range (km)
Doppler Factor

Next 0 passes for location: London (51.5072 / 0.1276)

No passes found over London.
GPS BIIR-13